Showing default

TIANQI 28, 59912

Orbit data source: Space-Track

TIANQI 28, 59912 is a payload satellite owned by Guodian Gaokeji (CN) in LEO that was launched on Wed, 29 May 2024 UTC via a GUSHENXING 1 launch vehicle from the Yellow Sea Launch Area, China (YSLA). Payload-class satellites include a variety of spacecraft equipped with specific instruments for various scientific and technological missions. These include communications satellites like Starlink; space stations such as the ISS; scientific satellites like the Hubble; Earth observation satellites from companies like Planet Labs, Umbra, and HawkEye 360; GPS; miniature CubeSats for education and research; and military/defense satellites.

Loading next visibility...
Identifier
59912, 2024-102D
Orbit
LEO
Country
Flag of CNCN / PRC
Related business
Manufacturer
Shanghai ASES
Mission
Operational Commercial Communications
Bus & Motor
STARLIGHTB, Unknown motor
Mass
40 kg wet, ~40 kg dry
Launch date (UTC)
2024-05-29 (2 years ago)
Launch vehicle
GUSHENXING 1
Launch site
Yellow Sea Launch Area, China (YSLA)
Object type
Payload
Rocket body
Debris
Shape & HBR
Box, 0.3 m
Radar Cross Section
0.195 m², Medium (>0.1 m² and < 1m²)

Expand to show TLE details & history
Last TLE update: 2 days ago

TLE from 2 days ago
0 TIANQI 28
1 59912U 24102D   26171.41844118  .00000003  00000-0  89732-4 0  9999
2 59912  44.9784 247.2962 0012960 261.9037  98.0326 13.99170411105350
Epoch: 2026-06-20T10:02Z
TLE epoch observation values (Epoch: 2026-06-20T10:02:33.317Z)
Latitude
0.00001°
Longitude
-171.97595°
Altitude
897.995 km
Speed
7.404 km/s
True Right ascension
16h 29m 11s
True Declination
0° 00' 00"
Sunlit
Object was in full shadow at epoch
Visualization orbit readout
Latitude
Unknown
Longitude
Unknown
Altitude
Unknown
Speed
Unknown
Apparent Right ascension
Unknown
Apparent Declination
Unknown
Sunlit
N/A
Visualization observer readout
Local Sidereal Time
00:39:28
Azimuth
Unknown
Elevation
Unknown
Doppler factor
Unknown
Orbital elements
Apogee altitude
907.621 km
Perigee altitude
888.761 km
Semi-major axis
7,276.328 km
Eccentricity
0.0013
Inclination
44.9784°
RAAN
247.2962°
Arg. of periapsis
261.9037°
True anomaly
98.17962°
Mean anomaly
98.0326°
Eccentric anomaly
98.10611°
Mean motion
3.49683 °/min
Orbital period
102.95 mins
BSTAR
0.000089732
Loading maneuver chart data...
Computing Atmospheric mass density...
Loading historical data...
Loading historical data...
Loading historical data...
Loading historical data...
Loading historical data...
Loading historical data...
Loading historical data...
Other satellites on launch #102 in the year 2024 (2024-05-29 UTC)

Documentation

Showing up to 5 results
|